This demonstration page uses our WeatherBlox Daily Observations layout. Learn more.

Left ArrowRight Arrow

39.92423, -83.80882

Hourly Observations for March 7, 2021

Temp ( °F °C ) Dew Point ( °F °C ) Humidity (%) Winds ( mph kmh ) Pressure ( in mb ) Visibility ( mi km ) Precip ( " mm )
12:56 am 00:56 Clear 27 -2.8 20 -6.7 75 75 NW 6 9 30.30 1026 10 16 N/A
1:56 am 01:56 Partly Cloudy 26 -3.3 19 -7.2 75 75 NW 8 13 30.32 1027 10 16 N/A
2:56 am 02:56 Clear 26 -3.3 20 -6.7 78 78 NW 9 15 30.32 1027 10 16 N/A
3:56 am 03:56 Clear 25 -3.9 20 -6.7 81 81 NW 10 17 30.34 1027 10 16 N/A
4:56 am 04:56 Clear 24 -4.4 19 -7.2 81 81 NW 7 11 30.36 1028 10 16 N/A
5:56 am 05:56 Clear 22 -5.6 18 -7.8 85 85 NW 6 9 30.38 1029 10 16 N/A
6:56 am 06:56 Clear 21 -6.1 18 -7.8 88 88 NW 8 13 30.41 1030 10 16 N/A
7:56 am 07:56 Sunny 24 -4.4 19 -7.2 81 81 NNW 6 9 30.42 1030 10 16 N/A
8:56 am 08:56 Sunny 28 -2.2 21 -6.1 75 75 NW 8 13 30.45 1031 10 16 N/A
9:56 am 09:56 Sunny 31 -0.6 19 -7.2 61 61 NNW 8 13 30.46 1031 10 16 N/A
10:56 am 10:56 Sunny 34 1.1 13 -10.6 42 42 VRB 7 11 30.46 1032 10 16 N/A
11:56 am 11:56 Sunny 38 3.3 14 -10 37 37 WNW 10 17 30.48 1032 10 16 N/A
12:56 pm 12:56 Sunny 40 4.4 9 -12.8 28 28 NNW 9 15 30.46 1032 10 16 N/A
1:56 pm 13:56 Sunny 41 5 11 -11.7 29 29 NW 7 11 30.44 1031 10 16 N/A
2:56 pm 14:56 Sunny 43 6.1 10 -12.2 26 26 N 8 13 30.44 1031 10 16 N/A
3:56 pm 15:56 Sunny 43 6.1 9 -12.8 25 25 WNW 12 19 30.44 1031 10 16 N/A
4:56 pm 16:56 Sunny 44 6.7 10 -12.2 25 25 NNW 7 11 30.45 1031 10 16 N/A
5:56 pm 17:56 Sunny 41 5 11 -11.7 29 29 NNW 8 13 30.46 1031 10 16 N/A
6:56 pm 18:56 Clear 36 2.2 11 -11.7 35 35 NNW 6 9 30.47 1032 10 16 N/A
7:56 pm 19:56 Clear 35 1.7 11 -11.7 37 37 ESE 3 6 30.47 1032 10 16 N/A
8:56 pm 20:56 Clear 27 -2.8 16 -8.9 63 63 ESE 3 6 30.47 1032 10 16 N/A
9:56 pm 21:56 Clear 27 -2.8 15 -9.4 61 61 N N/A 30.48 1032 10 16 N/A
10:56 pm 22:56 Clear 24 -4.4 16 -8.9 71 71 ESE 3 6 30.48 1032 10 16 N/A
11:56 pm 23:56 Clear 23 -5 17 -8.3 78 78 SE 5 7 30.48 1032 10 16 N/A

Powered by AerisWeather